Weather in Bolshoye Beresnevo

Russia / Smolensk Oblast     55°21′35″N   32°18′40″E
temp.,
°C
wind,
m/s
gust,
m/s
humid.,
%
clouds,
%
prec.,
mm/h
press.,
hPa
HPBL,
m
9 march, tue
tue900:00−13nnw269664 0.0 1014156
03:00−14nnw239755 0.0 101673
06:00−15nw249721 0.0 101789
09:00−13nnw379231 0.0 1019372
12:00−9nnw367994 0.0 1020861
15:00−8nnw357797 0.1 10211015
18:00−9nw2584100 0.1 1021183
21:00−13nnw229268 0.1 102320
10 march, wed
wed1000:00−14ssw019272 0.0 102420
03:00−12s129586 0.1 102463
06:00−11sse3595100 1.3 1024227
09:00−11ese3594100 3.3 1025233
12:00−10e4792100 1.2 1025380
15:00−10e4790100 1.6 1026459
18:00−12e4791100 0.2 1027461
21:00−15e499099 0.2 1029291
11 march, thu
thu1100:00−18ese489596 0.0 1031222
03:00−19ese389282 0.0 1032185
06:00−20se489435 0.0 1032183
09:00−18se478426 0.0 1032233
12:00−12sse36860 0.0 1031328
15:00−9sse478724 0.0 1030477
18:00−10sse489299 0.0 1029371
21:00−13sse499696 0.0 1029263
12 march, fri
fri1200:00−13s41197100 0.1 1028303
03:00−14sse51297100 0.1 1027312
06:00−14sse51495100 0.0 1025348
09:00−11sse71588100 0.1 1023518
12:00−6s81679100 0.0 1021816
15:00−4s91678100 0.0 10191096
18:00−6s91791100 0.3 10171116
21:00−6s91692100 1.6 10161050
13 march, sat
sat1300:00−6s81693100 1.7 1014955
03:00−4s71494100 4.4 1012738
06:00−1ssw41098100 2.1 1013458
09:000sw4992100 2.6 1014517
12:00+1ssw51096100 0.0 1014735
15:00+1ssw51098100 0.0 1014615
18:00+1ssw61195100 0.0 1013659
21:00+1ssw61295100 0.0 1012796